{"data":{"norad_id":60745,"intl_designator":"2024-153A","name":"2024-153A","alt_names":[],"object_type":"PAYLOAD","status":"ACTIVE","operator":null,"country":"PRC","launch_date":"2024-08-29","launch_site_code":"YSLA","launch_vehicle":null,"mission":null,"orbit_class":"UNKNOWN","rcs_meters":null,"size_class":null,"mass_kg":null,"dimensions":null,"purposes":[],"wikipedia_slug":null,"has_3d_model":false,"image_url":null,"decayed_at":null,"tle_current":{"epoch":"2026-09-22T22:37:32.099232Z","epoch_age_seconds":80543,"freshness":"FRESH","line1":"1 60745U 24153A   26265.94273263  .00077004  00000+0  10241-2 0  9991","line2":"2 60745  97.6829  54.4349 0003755 130.8965 229.2615 15.57921428115273","mean_motion":15.57921428,"eccentricity":0.0003755,"inclination_deg":97.6829,"raan_deg":54.4349,"arg_perigee_deg":130.8965,"mean_anomaly_deg":229.2615,"bstar":0.0010241,"rev_number":11527,"period_min":92.430848829688,"perigee_km":391.13085717608,"apogee_km":396.21648699081,"semimajor_km":6771.8106720834,"source":"CELESTRAK","updated_at":"2026-09-23T09:00:20.717530Z"}}}